Tracking 19706 objects as of 16-Jun-2019
HD Live streaming from Space Station
objects crossing your sky now

LEMUR 2 ARTFISCHER

Track LEMUR 2 ARTFISCHER now!
10-day predictions
LEMUR 2 ARTFISCHER is classified as:


NORAD ID: 42881
Int'l Code: 2017-042BJ
Perigee: 450.1 km
Apogee: 464.3 km
Inclination: 96.9 °
Period: 93.6 minutes
Semi major axis: 6828 km
RCS: Unknown
Launch date: July 14, 2017
Source: United States (US)
Launch site: TYURATAM MISSILE AND SPACE COMPLEX (TTMTR)
aabbcc
Your satellite tracking list
Your tracking list is empty




NASA's NSSDC Master Catalog

Two Line Element Set (TLE):
1 42881U 17042BJ  19167.17595579  .00002478  00000-0  66766-4 0  9995
2 42881  96.9410  49.6716 0010376 218.8796 141.1705 15.38668470107538
Source of the keplerian elements: AFSPC